Time,TemperatureF,DewpointF,PressureIn,WindDirection,WindDirectionDegrees,WindSpeedMPH,WindSpeedGustMPH,Humidity,HourlyPrecipIn,Conditions,Clouds,dailyrainin,SoftwareType,DateUTC
2013-04-20 00:01:00,24.9,19.9,30.07,NNW,335,1.0,2.0,81,0.00,,,0.00,vanprod-2.3,2013-04-20 05:01:00,
2013-04-20 00:06:00,24.8,19.8,30.07,NNW,335,1.0,7.0,81,0.00,,,0.00,vanprod-2.3,2013-04-20 05:06:00,
2013-04-20 00:11:00,24.6,19.6,30.07,NNW,335,3.0,5.0,81,0.00,,,0.00,vanprod-2.3,2013-04-20 05:11:00,
2013-04-20 00:16:00,24.6,19.6,30.07,NNW,335,2.0,3.0,81,0.00,,,0.00,vanprod-2.3,2013-04-20 05:16:00,
2013-04-20 00:21:00,24.5,19.5,30.07,NNW,335,2.0,3.0,81,0.00,,,0.00,vanprod-2.3,2013-04-20 05:21:00,
2013-04-20 00:26:00,24.5,19.5,30.08,NNW,335,3.0,6.0,81,0.00,,,0.00,vanprod-2.3,2013-04-20 05:26:00,
2013-04-20 00:31:00,24.5,19.5,30.08,NNW,335,2.0,2.0,81,0.00,,,0.00,vanprod-2.3,2013-04-20 05:31:00,
2013-04-20 00:36:00,24.5,19.5,30.08,NW,325,3.0,6.0,81,0.00,,,0.00,vanprod-2.3,2013-04-20 05:36:00,
2013-04-20 00:41:00,24.3,19.6,30.09,NW,325,1.0,3.0,82,0.00,,,0.00,vanprod-2.3,2013-04-20 05:41:00,
2013-04-20 00:46:00,24.3,19.6,30.09,NW,325,2.0,2.0,82,0.00,,,0.00,vanprod-2.3,2013-04-20 05:46:00,
2013-04-20 00:51:00,24.2,19.5,30.09,NW,325,2.0,2.0,82,0.00,,,0.00,vanprod-2.3,2013-04-20 05:51:00,
2013-04-20 00:56:00,24.2,19.5,30.09,NW,325,1.0,2.0,82,0.00,,,0.00,vanprod-2.3,2013-04-20 05:56:00,
2013-04-20 01:01:00,24.2,19.5,30.09,NW,325,3.0,3.0,82,0.00,,,0.00,vanprod-2.3,2013-04-20 06:01:00,
2013-04-20 01:06:00,24.2,19.5,30.09,NW,325,2.0,5.0,82,0.00,,,0.00,vanprod-2.3,2013-04-20 06:06:00,
2013-04-20 01:11:00,24.0,19.3,30.09,NNW,329,2.0,6.0,82,0.00,,,0.00,vanprod-2.3,2013-04-20 06:11:00,
2013-04-20 01:16:00,24.0,19.3,30.09,NNW,328,2.0,2.0,82,0.00,,,0.00,vanprod-2.3,2013-04-20 06:16:00,
2013-04-20 01:21:00,24.0,19.0,30.10,NNW,328,3.0,3.0,81,0.00,,,0.00,vanprod-2.3,2013-04-20 06:21:00,
2013-04-20 01:26:00,23.9,18.9,30.10,NNW,328,2.0,2.0,81,0.00,,,0.00,vanprod-2.3,2013-04-20 06:26:00,
2013-04-20 01:31:00,23.7,18.7,30.10,NW,323,2.0,5.0,81,0.00,,,0.00,vanprod-2.3,2013-04-20 06:31:00,
2013-04-20 01:36:00,23.6,18.6,30.10,NW,323,1.0,3.0,81,0.00,,,0.00,vanprod-2.3,2013-04-20 06:36:00,
2013-04-20 01:41:00,23.3,18.3,30.10,NW,323,2.0,2.0,81,0.00,,,0.00,vanprod-2.3,2013-04-20 06:41:00,
2013-04-20 01:46:00,23.1,18.1,30.10,NW,323,1.0,1.0,81,0.00,,,0.00,vanprod-2.3,2013-04-20 06:46:00,
2013-04-20 01:51:00,23.0,18.3,30.10,NW,323,2.0,3.0,82,0.00,,,0.00,vanprod-2.3,2013-04-20 06:51:00,
2013-04-20 01:56:00,22.8,18.1,30.10,NW,323,2.0,2.0,82,0.00,,,0.00,vanprod-2.3,2013-04-20 06:56:00,
2013-04-20 02:01:00,23.0,18.3,30.10,NW,323,2.0,2.0,82,0.00,,,0.00,vanprod-2.3,2013-04-20 07:01:00,
2013-04-20 02:06:00,23.0,18.3,30.10,NW,319,2.0,2.0,82,0.00,,,0.00,vanprod-2.3,2013-04-20 07:06:00,
2013-04-20 02:11:00,23.0,18.1,30.10,NW,319,2.0,3.0,81,0.00,,,0.00,vanprod-2.3,2013-04-20 07:11:00,
2013-04-20 02:16:00,22.7,17.8,30.11,NW,319,3.0,4.0,81,0.00,,,0.00,vanprod-2.3,2013-04-20 07:16:00,
2013-04-20 02:21:00,22.5,17.8,30.11,NW,319,3.0,3.0,82,0.00,,,0.00,vanprod-2.3,2013-04-20 07:21:00,
2013-04-20 02:26:00,22.4,17.7,30.11,NW,319,2.0,3.0,82,0.00,,,0.00,vanprod-2.3,2013-04-20 07:26:00,
2013-04-20 02:31:00,22.2,17.6,30.11,NW,319,2.0,2.0,82,0.00,,,0.00,vanprod-2.3,2013-04-20 07:31:00,
2013-04-20 02:36:00,22.0,17.4,30.11,NW,319,1.0,1.0,82,0.00,,,0.00,vanprod-2.3,2013-04-20 07:36:00,
2013-04-20 02:41:00,21.9,17.3,30.11,NW,319,2.0,2.0,82,0.00,,,0.00,vanprod-2.3,2013-04-20 07:41:00,
2013-04-20 02:46:00,21.7,17.1,30.12,NW,319,2.0,2.0,82,0.00,,,0.00,vanprod-2.3,2013-04-20 07:46:00,
2013-04-20 02:51:00,21.7,17.3,30.12,NW,319,2.0,2.0,83,0.00,,,0.00,vanprod-2.3,2013-04-20 07:51:00,
2013-04-20 02:56:00,21.7,17.3,30.12,NW,319,1.0,1.0,83,0.00,,,0.00,vanprod-2.3,2013-04-20 07:56:00,
2013-04-20 03:01:00,21.7,17.3,30.12,NW,319,1.0,2.0,83,0.00,,,0.00,vanprod-2.3,2013-04-20 08:01:00,
2013-04-20 03:06:00,21.7,17.3,30.12,NW,319,2.0,5.0,83,0.00,,,0.00,vanprod-2.3,2013-04-20 08:06:00,
2013-04-20 03:11:00,21.7,17.1,30.12,NW,320,1.0,0.0,82,0.00,,,0.00,vanprod-2.3,2013-04-20 08:11:00,
2013-04-20 03:16:00,21.6,17.0,30.12,NW,319,1.0,2.0,82,0.00,,,0.00,vanprod-2.3,2013-04-20 08:16:00,
2013-04-20 03:21:00,21.6,17.0,30.12,NW,320,1.0,1.0,82,0.00,,,0.00,vanprod-2.3,2013-04-20 08:21:00,
2013-04-20 03:26:00,21.4,16.8,30.12,NW,320,1.0,1.0,82,0.00,,,0.00,vanprod-2.3,2013-04-20 08:26:00,
2013-04-20 03:31:00,21.3,16.7,30.12,NW,320,0.0,1.0,82,0.00,,,0.00,vanprod-2.3,2013-04-20 08:31:00,
2013-04-20 03:36:00,21.1,16.5,30.12,NW,320,1.0,2.0,82,0.00,,,0.00,vanprod-2.3,2013-04-20 08:36:00,
2013-04-20 03:41:00,21.1,16.5,30.12,NW,320,1.0,0.0,82,0.00,,,0.00,vanprod-2.3,2013-04-20 08:41:00,
2013-04-20 03:46:00,20.9,16.3,30.12,NW,320,0.0,1.0,82,0.00,,,0.00,vanprod-2.3,2013-04-20 08:46:00,
2013-04-20 03:51:00,20.8,16.5,30.13,NW,320,0.0,1.0,83,0.00,,,0.00,vanprod-2.3,2013-04-20 08:51:00,
2013-04-20 03:56:00,20.6,16.3,30.13,NW,320,0.0,2.0,83,0.00,,,0.00,vanprod-2.3,2013-04-20 08:56:00,
2013-04-20 04:01:00,20.5,16.2,30.13,NW,320,0.0,1.0,83,0.00,,,0.00,vanprod-2.3,2013-04-20 09:01:00,
2013-04-20 04:06:00,20.3,16.0,30.13,NW,320,1.0,0.0,83,0.00,,,0.00,vanprod-2.3,2013-04-20 09:06:00,
2013-04-20 04:11:00,20.1,15.8,30.13,NW,320,0.0,2.0,83,0.00,,,0.00,vanprod-2.3,2013-04-20 09:11:00,
2013-04-20 04:16:00,20.1,15.8,30.13,NW,320,0.0,1.0,83,0.00,,,0.00,vanprod-2.3,2013-04-20 09:16:00,
2013-04-20 04:21:00,20.0,15.7,30.13,NW,320,0.0,1.0,83,0.00,,,0.00,vanprod-2.3,2013-04-20 09:21:00,
2013-04-20 04:26:00,20.0,15.7,30.14,NW,320,0.0,0.0,83,0.00,,,0.00,vanprod-2.3,2013-04-20 09:26:00,
2013-04-20 04:31:00,20.0,15.7,30.14,NW,320,1.0,0.0,83,0.00,,,0.00,vanprod-2.3,2013-04-20 09:31:00,
2013-04-20 04:36:00,20.0,15.7,30.14,NW,320,1.0,2.0,83,0.00,,,0.00,vanprod-2.3,2013-04-20 09:36:00,
2013-04-20 04:41:00,19.8,15.5,30.14,NW,320,1.0,2.0,83,0.00,,,0.00,vanprod-2.3,2013-04-20 09:41:00,
2013-04-20 04:46:00,19.8,15.5,30.14,NW,320,1.0,3.0,83,0.00,,,0.00,vanprod-2.3,2013-04-20 09:46:00,
2013-04-20 04:51:00,19.8,15.5,30.14,NW,320,1.0,0.0,83,0.00,,,0.00,vanprod-2.3,2013-04-20 09:51:00,
2013-04-20 04:56:00,19.7,15.4,30.14,NW,320,1.0,2.0,83,0.00,,,0.00,vanprod-2.3,2013-04-20 09:56:00,
2013-04-20 05:01:00,19.5,15.2,30.14,NW,320,0.0,2.0,83,0.00,,,0.00,vanprod-2.3,2013-04-20 10:01:00,
2013-04-20 05:06:00,19.4,15.1,30.15,NW,320,1.0,2.0,83,0.00,,,0.00,vanprod-2.3,2013-04-20 10:06:00,
2013-04-20 05:11:00,19.4,15.1,30.15,NW,320,0.0,0.0,83,0.00,,,0.00,vanprod-2.3,2013-04-20 10:11:00,
2013-04-20 05:16:00,19.4,15.1,30.15,NW,320,1.0,2.0,83,0.00,,,0.00,vanprod-2.3,2013-04-20 10:16:00,
2013-04-20 05:21:00,19.2,14.9,30.15,NW,320,1.0,2.0,83,0.00,,,0.00,vanprod-2.3,2013-04-20 10:21:00,
2013-04-20 05:26:00,19.0,14.7,30.15,NW,320,0.0,1.0,83,0.00,,,0.00,vanprod-2.3,2013-04-20 10:26:00,
2013-04-20 05:31:00,18.9,14.6,30.16,NW,320,1.0,0.0,83,0.00,,,0.00,vanprod-2.3,2013-04-20 10:31:00,
2013-04-20 05:36:00,18.7,14.7,30.16,NW,320,1.0,2.0,84,0.00,,,0.00,vanprod-2.3,2013-04-20 10:36:00,
2013-04-20 05:41:00,18.6,14.6,30.16,NW,320,0.0,0.0,84,0.00,,,0.00,vanprod-2.3,2013-04-20 10:41:00,
2013-04-20 05:46:00,18.6,14.6,30.16,NW,320,0.0,0.0,84,0.00,,,0.00,vanprod-2.3,2013-04-20 10:46:00,
2013-04-20 05:51:00,18.4,14.4,30.16,NW,320,0.0,0.0,84,0.00,,,0.00,vanprod-2.3,2013-04-20 10:51:00,
2013-04-20 05:56:00,18.4,14.4,30.16,NW,320,0.0,0.0,84,0.00,,,0.00,vanprod-2.3,2013-04-20 10:56:00,
2013-04-20 06:01:00,18.4,14.7,30.16,NW,320,1.0,3.0,85,0.00,,,0.00,vanprod-2.3,2013-04-20 11:01:00,
2013-04-20 06:06:00,18.3,14.6,30.17,NW,320,1.0,2.0,85,0.00,,,0.00,vanprod-2.3,2013-04-20 11:06:00,
2013-04-20 06:11:00,18.3,14.6,30.17,NW,320,2.0,2.0,85,0.00,,,0.00,vanprod-2.3,2013-04-20 11:11:00,
2013-04-20 06:16:00,18.1,14.4,30.17,NW,320,0.0,2.0,85,0.00,,,0.00,vanprod-2.3,2013-04-20 11:16:00,
2013-04-20 06:21:00,18.1,14.4,30.17,NW,320,0.0,2.0,85,0.00,,,0.00,vanprod-2.3,2013-04-20 11:21:00,
2013-04-20 06:26:00,17.9,14.2,30.18,NW,320,1.0,0.0,85,0.00,,,0.00,vanprod-2.3,2013-04-20 11:26:00,
2013-04-20 06:31:00,17.6,13.9,30.18,NW,320,0.0,0.0,85,0.00,,,0.00,vanprod-2.3,2013-04-20 11:31:00,
2013-04-20 06:36:00,17.6,13.9,30.18,NW,320,0.0,0.0,85,0.00,,,0.00,vanprod-2.3,2013-04-20 11:36:00,
2013-04-20 06:41:00,17.5,13.8,30.18,NW,320,0.0,0.0,85,0.00,,,0.00,vanprod-2.3,2013-04-20 11:41:00,
2013-04-20 06:46:00,17.5,14.0,30.18,NW,320,0.0,0.0,86,0.00,,,0.00,vanprod-2.3,2013-04-20 11:46:00,
2013-04-20 06:51:00,17.5,14.0,30.18,NW,320,0.0,0.0,86,0.00,,,0.00,vanprod-2.3,2013-04-20 11:51:00,
2013-04-20 06:56:00,17.5,14.0,30.19,NW,320,2.0,3.0,86,0.00,,,0.00,vanprod-2.3,2013-04-20 11:56:00,
2013-04-20 07:01:00,17.3,14.1,30.19,NW,320,0.0,2.0,87,0.00,,,0.00,vanprod-2.3,2013-04-20 12:01:00,
2013-04-20 07:06:00,17.5,14.3,30.19,NW,320,1.0,0.0,87,0.00,,,0.00,vanprod-2.3,2013-04-20 12:06:00,
2013-04-20 07:11:00,17.5,14.3,30.19,NW,320,1.0,1.0,87,0.00,,,0.00,vanprod-2.3,2013-04-20 12:11:00,
2013-04-20 07:16:00,17.6,14.4,30.20,NW,320,1.0,0.0,87,0.00,,,0.00,vanprod-2.3,2013-04-20 12:16:00,
2013-04-20 07:21:00,17.9,14.4,30.20,NW,320,1.0,2.0,86,0.00,,,0.00,vanprod-2.3,2013-04-20 12:21:00,
2013-04-20 07:26:00,18.1,14.6,30.20,NW,320,0.0,1.0,86,0.00,,,0.00,vanprod-2.3,2013-04-20 12:26:00,
2013-04-20 07:31:00,18.4,14.7,30.20,NW,320,1.0,0.0,85,0.00,,,0.00,vanprod-2.3,2013-04-20 12:31:00,
2013-04-20 07:36:00,18.6,14.9,30.20,NW,319,1.0,0.0,85,0.00,,,0.00,vanprod-2.3,2013-04-20 12:36:00,
2013-04-20 07:41:00,18.7,14.7,30.20,NW,319,2.0,2.0,84,0.00,,,0.00,vanprod-2.3,2013-04-20 12:41:00,
2013-04-20 07:46:00,18.9,14.6,30.20,NW,319,1.0,2.0,83,0.00,,,0.00,vanprod-2.3,2013-04-20 12:46:00,
2013-04-20 07:51:00,19.2,14.9,30.20,NW,319,1.0,1.0,83,0.00,,,0.00,vanprod-2.3,2013-04-20 12:51:00,
2013-04-20 07:56:00,19.5,14.9,30.21,NW,319,1.0,0.0,82,0.00,,,0.00,vanprod-2.3,2013-04-20 12:56:00,
2013-04-20 08:01:00,19.7,15.1,30.21,NW,319,0.0,2.0,82,0.00,,,0.00,vanprod-2.3,2013-04-20 13:01:00,
2013-04-20 08:06:00,20.0,15.4,30.21,NW,319,1.0,0.0,82,0.00,,,0.00,vanprod-2.3,2013-04-20 13:06:00,
2013-04-20 08:11:00,20.6,15.7,30.21,NW,319,1.0,1.0,81,0.00,,,0.00,vanprod-2.3,2013-04-20 13:11:00,
2013-04-20 08:16:00,21.1,15.9,30.21,NW,319,1.0,3.0,80,0.00,,,0.00,vanprod-2.3,2013-04-20 13:16:00,
2013-04-20 08:21:00,21.3,16.1,30.21,NW,319,1.0,1.0,80,0.00,,,0.00,vanprod-2.3,2013-04-20 13:21:00,
2013-04-20 08:26:00,21.6,16.1,30.22,NW,319,2.0,2.0,79,0.00,,,0.00,vanprod-2.3,2013-04-20 13:26:00,
2013-04-20 08:31:00,21.7,16.2,30.22,NW,319,0.0,0.0,79,0.00,,,0.00,vanprod-2.3,2013-04-20 13:31:00,
2013-04-20 08:36:00,22.2,16.7,30.22,NW,319,2.0,2.0,79,0.00,,,0.00,vanprod-2.3,2013-04-20 13:36:00,
2013-04-20 08:41:00,22.8,17.3,30.23,NW,320,1.0,3.0,79,0.00,,,0.00,vanprod-2.3,2013-04-20 13:41:00,
2013-04-20 08:46:00,23.1,17.3,30.22,NW,320,1.0,2.0,78,0.00,,,0.00,vanprod-2.3,2013-04-20 13:46:00,
2013-04-20 08:51:00,23.4,17.6,30.23,NW,320,0.0,0.0,78,0.00,,,0.00,vanprod-2.3,2013-04-20 13:51:00,
2013-04-20 08:56:00,24.0,18.1,30.23,NW,319,1.0,0.0,78,0.00,,,0.00,vanprod-2.3,2013-04-20 13:56:00,
2013-04-20 09:01:00,24.5,18.6,30.23,NW,319,1.0,2.0,78,0.00,,,0.00,vanprod-2.3,2013-04-20 14:01:00,
2013-04-20 09:06:00,25.1,18.6,30.23,NW,320,1.0,4.0,76,0.00,,,0.00,vanprod-2.3,2013-04-20 14:06:00,
2013-04-20 09:11:00,25.5,18.7,30.23,NW,320,3.0,6.0,75,0.00,,,0.00,vanprod-2.3,2013-04-20 14:11:00,
2013-04-20 09:16:00,25.8,19.0,30.23,NNW,335,3.0,6.0,75,0.00,,,0.00,vanprod-2.3,2013-04-20 14:16:00,
2013-04-20 09:21:00,25.9,19.1,30.23,NNW,335,2.0,3.0,75,0.00,,,0.00,vanprod-2.3,2013-04-20 14:21:00,
2013-04-20 09:26:00,26.2,19.1,30.23,NNW,335,2.0,3.0,74,0.00,,,0.00,vanprod-2.3,2013-04-20 14:26:00,
2013-04-20 09:31:00,26.5,19.3,30.23,NNW,336,1.0,2.0,74,0.00,,,0.00,vanprod-2.3,2013-04-20 14:31:00,
2013-04-20 09:36:00,26.7,19.5,30.24,NNW,336,2.0,2.0,74,0.00,,,0.00,vanprod-2.3,2013-04-20 14:36:00,
2013-04-20 09:41:00,26.8,19.3,30.23,NNW,336,1.0,0.0,73,0.00,,,0.00,vanprod-2.3,2013-04-20 14:41:00,
2013-04-20 09:46:00,27.4,19.9,30.23,NNW,336,0.0,0.0,73,0.00,,,0.00,vanprod-2.3,2013-04-20 14:46:00,
2013-04-20 09:51:00,27.9,20.1,30.23,NNW,336,1.0,1.0,72,0.00,,,0.00,vanprod-2.3,2013-04-20 14:51:00,
2013-04-20 09:56:00,28.0,20.2,30.23,NNW,336,1.0,0.0,72,0.00,,,0.00,vanprod-2.3,2013-04-20 14:56:00,
2013-04-20 10:01:00,28.3,20.1,30.23,NNW,336,1.0,2.0,71,0.00,,,0.00,vanprod-2.3,2013-04-20 15:01:00,
2013-04-20 10:06:00,28.0,19.8,30.23,NNW,336,2.0,5.0,71,0.00,,,0.00,vanprod-2.3,2013-04-20 15:06:00,
2013-04-20 10:11:00,27.9,19.7,30.23,NNW,336,2.0,2.0,71,0.00,,,0.00,vanprod-2.3,2013-04-20 15:11:00,
2013-04-20 10:16:00,28.2,20.0,30.23,NNW,336,2.0,2.0,71,0.00,,,0.00,vanprod-2.3,2013-04-20 15:16:00,
2013-04-20 10:21:00,28.3,20.1,30.23,NNW,336,2.0,3.0,71,0.00,,,0.00,vanprod-2.3,2013-04-20 15:21:00,
2013-04-20 10:26:00,27.9,19.7,30.23,NNW,344,3.0,6.0,71,0.00,,,0.00,vanprod-2.3,2013-04-20 15:26:00,
2013-04-20 10:31:00,27.7,20.2,30.23,North,350,2.0,3.0,73,0.00,,,0.00,vanprod-2.3,2013-04-20 15:31:00,
2013-04-20 10:36:00,28.0,19.8,30.24,North,350,2.0,3.0,71,0.00,,,0.00,vanprod-2.3,2013-04-20 15:36:00,
2013-04-20 10:41:00,27.7,19.9,30.24,North,350,3.0,3.0,72,0.00,,,0.00,vanprod-2.3,2013-04-20 15:41:00,
2013-04-20 10:46:00,27.9,20.4,30.24,North,350,1.0,3.0,73,0.00,,,0.00,vanprod-2.3,2013-04-20 15:46:00,
2013-04-20 10:51:00,27.9,20.4,30.24,North,350,2.0,3.0,73,0.00,,,0.00,vanprod-2.3,2013-04-20 15:51:00,
2013-04-20 10:56:00,28.2,20.7,30.24,North,350,1.0,1.0,73,0.00,,,0.00,vanprod-2.3,2013-04-20 15:56:00,
2013-04-20 11:01:00,28.6,20.7,30.24,North,350,2.0,2.0,72,0.00,,,0.00,vanprod-2.3,2013-04-20 16:01:00,
2013-04-20 11:06:00,29.0,21.1,30.24,North,350,2.0,2.0,72,0.00,,,0.00,vanprod-2.3,2013-04-20 16:06:00,
2013-04-20 11:11:00,29.5,20.9,30.25,North,350,1.0,2.0,70,0.00,,,0.00,vanprod-2.3,2013-04-20 16:11:00,
2013-04-20 11:16:00,29.5,20.9,30.25,North,350,2.0,2.0,70,0.00,,,0.00,vanprod-2.3,2013-04-20 16:16:00,
2013-04-20 11:21:00,29.8,20.9,30.25,North,350,2.0,2.0,69,0.00,,,0.00,vanprod-2.3,2013-04-20 16:21:00,
2013-04-20 11:26:00,30.1,20.5,30.26,North,350,2.0,2.0,67,0.00,,,0.00,vanprod-2.3,2013-04-20 16:26:00,
2013-04-20 11:31:00,30.2,20.9,30.26,North,350,2.0,2.0,68,0.00,,,0.00,vanprod-2.3,2013-04-20 16:31:00,
2013-04-20 11:36:00,30.2,20.2,30.26,North,350,1.0,0.0,66,0.00,,,0.00,vanprod-2.3,2013-04-20 16:36:00,
2013-04-20 11:41:00,30.5,18.7,30.26,North,350,2.0,2.0,61,0.00,,,0.00,vanprod-2.3,2013-04-20 16:41:00,
2013-04-20 11:46:00,30.5,19.8,30.25,North,350,1.0,2.0,64,0.00,,,0.00,vanprod-2.3,2013-04-20 16:46:00,
2013-04-20 11:51:00,31.3,20.9,30.25,North,350,1.0,2.0,65,0.00,,,0.00,vanprod-2.3,2013-04-20 16:51:00,
2013-04-20 11:56:00,31.3,20.6,30.25,North,350,2.0,3.0,64,0.00,,,0.00,vanprod-2.3,2013-04-20 16:56:00,
2013-04-20 12:01:00,31.4,21.4,30.25,North,350,1.0,0.0,66,0.00,,,0.00,vanprod-2.3,2013-04-20 17:01:00,
2013-04-20 12:06:00,32.0,21.6,30.25,North,350,2.0,3.0,65,0.00,,,0.00,vanprod-2.3,2013-04-20 17:06:00,
2013-04-20 12:11:00,31.9,21.1,30.25,North,350,2.0,3.0,64,0.00,,,0.00,vanprod-2.3,2013-04-20 17:11:00,
2013-04-20 12:16:00,32.0,21.6,30.25,North,350,1.0,1.0,65,0.00,,,0.00,vanprod-2.3,2013-04-20 17:16:00,
2013-04-20 12:21:00,32.6,22.2,30.25,North,350,1.0,1.0,65,0.00,,,0.00,vanprod-2.3,2013-04-20 17:21:00,
2013-04-20 12:26:00,32.6,21.8,30.25,North,349,4.0,5.0,64,0.00,,,0.00,vanprod-2.3,2013-04-20 17:26:00,
2013-04-20 12:31:00,32.6,21.8,30.26,NW,321,4.0,6.0,64,0.00,,,0.00,vanprod-2.3,2013-04-20 17:31:00,
2013-04-20 12:36:00,32.7,21.5,30.26,NW,316,2.0,5.0,63,0.00,,,0.00,vanprod-2.3,2013-04-20 17:36:00,
2013-04-20 12:41:00,33.2,21.2,30.25,NW,316,1.0,2.0,61,0.00,,,0.00,vanprod-2.3,2013-04-20 17:41:00,
2013-04-20 12:46:00,33.0,20.3,30.25,NW,316,4.0,7.0,59,0.00,,,0.00,vanprod-2.3,2013-04-20 17:46:00,
2013-04-20 12:51:00,32.7,20.8,30.25,NW,315,1.0,2.0,61,0.00,,,0.00,vanprod-2.3,2013-04-20 17:51:00,
2013-04-20 12:56:00,33.8,22.2,30.26,NW,315,2.0,2.0,62,0.00,,,0.00,vanprod-2.3,2013-04-20 17:56:00,
2013-04-20 13:01:00,34.1,21.3,30.25,NW,315,2.0,2.0,59,0.00,,,0.00,vanprod-2.3,2013-04-20 18:01:00,
2013-04-20 13:06:00,33.8,20.2,30.25,WNW,298,3.0,4.0,57,0.00,,,0.00,vanprod-2.3,2013-04-20 18:06:00,
2013-04-20 13:11:00,34.2,21.8,30.25,WNW,298,1.0,3.0,60,0.00,,,0.00,vanprod-2.3,2013-04-20 18:11:00,
2013-04-20 13:16:00,33.8,19.4,30.26,WNW,297,4.0,7.0,55,0.00,,,0.00,vanprod-2.3,2013-04-20 18:16:00,
2013-04-20 13:21:00,34.1,20.1,30.26,WNW,295,3.0,5.0,56,0.00,,,0.00,vanprod-2.3,2013-04-20 18:21:00,
2013-04-20 13:26:00,33.6,19.6,30.26,WNW,295,3.0,5.0,56,0.00,,,0.00,vanprod-2.3,2013-04-20 18:26:00,
2013-04-20 13:31:00,33.8,20.2,30.26,WNW,295,3.0,3.0,57,0.00,,,0.00,vanprod-2.3,2013-04-20 18:31:00,
2013-04-20 13:36:00,34.1,20.5,30.26,WNW,294,4.0,4.0,57,0.00,,,0.00,vanprod-2.3,2013-04-20 18:36:00,
2013-04-20 13:41:00,34.1,20.1,30.25,WNW,292,2.0,2.0,56,0.00,,,0.00,vanprod-2.3,2013-04-20 18:41:00,
2013-04-20 13:46:00,33.9,19.9,30.26,WNW,292,3.0,3.0,56,0.00,,,0.00,vanprod-2.3,2013-04-20 18:46:00,
2013-04-20 13:51:00,33.6,19.2,30.25,WNW,289,3.0,3.0,55,0.00,,,0.00,vanprod-2.3,2013-04-20 18:51:00,
2013-04-20 13:56:00,33.9,20.3,30.25,WNW,289,4.0,8.0,57,0.00,,,0.00,vanprod-2.3,2013-04-20 18:56:00,
2013-04-20 14:01:00,33.8,19.8,30.25,West,271,3.0,3.0,56,0.00,,,0.00,vanprod-2.3,2013-04-20 19:01:00,
2013-04-20 14:06:00,33.3,19.7,30.25,West,271,4.0,5.0,57,0.00,,,0.00,vanprod-2.3,2013-04-20 19:06:00,
2013-04-20 14:11:00,33.5,20.7,30.25,West,270,5.0,6.0,59,0.00,,,0.00,vanprod-2.3,2013-04-20 19:11:00,
2013-04-20 14:16:00,33.3,17.6,30.25,West,270,3.0,3.0,52,0.00,,,0.00,vanprod-2.3,2013-04-20 19:16:00,
2013-04-20 14:21:00,33.8,19.4,30.25,West,270,2.0,4.0,55,0.00,,,0.00,vanprod-2.3,2013-04-20 19:21:00,
2013-04-20 14:26:00,34.2,19.3,30.25,West,270,3.0,4.0,54,0.00,,,0.00,vanprod-2.3,2013-04-20 19:26:00,
2013-04-20 14:31:00,34.2,18.4,30.25,West,268,4.0,6.0,52,0.00,,,0.00,vanprod-2.3,2013-04-20 19:31:00,
2013-04-20 14:36:00,34.1,19.6,30.25,West,268,2.0,5.0,55,0.00,,,0.00,vanprod-2.3,2013-04-20 19:36:00,
2013-04-20 14:41:00,34.8,19.9,30.25,West,268,4.0,6.0,54,0.00,,,0.00,vanprod-2.3,2013-04-20 19:41:00,
2013-04-20 14:46:00,35.1,18.8,30.25,West,268,4.0,4.0,51,0.00,,,0.00,vanprod-2.3,2013-04-20 19:46:00,
2013-04-20 14:51:00,35.1,16.9,30.25,West,267,4.0,4.0,47,0.00,,,0.00,vanprod-2.3,2013-04-20 19:51:00,
2013-04-20 14:56:00,35.3,18.1,30.25,West,267,3.0,6.0,49,0.00,,,0.00,vanprod-2.3,2013-04-20 19:56:00,
2013-04-20 15:01:00,34.8,18.5,30.25,West,263,4.0,4.0,51,0.00,,,0.00,vanprod-2.3,2013-04-20 20:01:00,
2013-04-20 15:06:00,34.7,16.1,30.25,WSW,258,4.0,9.0,46,0.00,,,0.00,vanprod-2.3,2013-04-20 20:06:00,
2013-04-20 15:11:00,34.7,17.0,30.24,WSW,243,5.0,5.0,48,0.00,,,0.00,vanprod-2.3,2013-04-20 20:11:00,
2013-04-20 15:16:00,35.3,19.0,30.24,SW,236,4.0,4.0,51,0.00,,,0.00,vanprod-2.3,2013-04-20 20:16:00,
2013-04-20 15:21:00,35.7,20.7,30.24,SW,236,3.0,3.0,54,0.00,,,0.00,vanprod-2.3,2013-04-20 20:21:00,
2013-04-20 15:26:00,35.4,19.5,30.24,SW,230,3.0,3.0,52,0.00,,,0.00,vanprod-2.3,2013-04-20 20:26:00,
2013-04-20 15:31:00,35.8,18.5,30.25,SW,230,2.0,2.0,49,0.00,,,0.00,vanprod-2.3,2013-04-20 20:31:00,
2013-04-20 15:36:00,35.8,20.4,30.25,SW,227,4.0,5.0,53,0.00,,,0.00,vanprod-2.3,2013-04-20 20:36:00,
2013-04-20 15:41:00,35.4,21.3,30.24,SSW,213,4.0,4.0,56,0.00,,,0.00,vanprod-2.3,2013-04-20 20:41:00,
2013-04-20 15:46:00,35.3,19.9,30.24,SSW,199,4.0,4.0,53,0.00,,,0.00,vanprod-2.3,2013-04-20 20:46:00,
2013-04-20 15:51:00,35.0,21.3,30.24,SSW,199,4.0,4.0,57,0.00,,,0.00,vanprod-2.3,2013-04-20 20:51:00,
2013-04-20 15:56:00,35.4,20.9,30.24,SSW,199,3.0,5.0,55,0.00,,,0.00,vanprod-2.3,2013-04-20 20:56:00,
2013-04-20 16:01:00,35.5,20.9,30.24,SSW,199,5.0,5.0,55,0.00,,,0.00,vanprod-2.3,2013-04-20 21:01:00,
2013-04-20 16:06:00,35.4,20.9,30.24,SSW,199,4.0,8.0,55,0.00,,,0.00,vanprod-2.3,2013-04-20 21:06:00,
2013-04-20 16:11:00,34.8,19.0,30.24,SSW,199,4.0,5.0,52,0.00,,,0.00,vanprod-2.3,2013-04-20 21:11:00,
2013-04-20 16:16:00,35.1,21.0,30.24,SSW,198,4.0,4.0,56,0.00,,,0.00,vanprod-2.3,2013-04-20 21:16:00,
2013-04-20 16:21:00,35.5,20.1,30.23,SSW,198,4.0,4.0,53,0.00,,,0.00,vanprod-2.3,2013-04-20 21:21:00,
2013-04-20 16:26:00,35.5,20.5,30.23,SSW,198,3.0,3.0,54,0.00,,,0.00,vanprod-2.3,2013-04-20 21:26:00,
2013-04-20 16:31:00,35.1,19.3,30.23,SSW,192,6.0,6.0,52,0.00,,,0.00,vanprod-2.3,2013-04-20 21:31:00,
2013-04-20 16:36:00,35.0,21.3,30.23,SSW,192,5.0,13.0,57,0.00,,,0.00,vanprod-2.3,2013-04-20 21:36:00,
2013-04-20 16:41:00,35.0,20.9,30.23,SSW,192,5.0,9.0,56,0.00,,,0.00,vanprod-2.3,2013-04-20 21:41:00,
2013-04-20 16:46:00,34.7,20.2,30.23,South,191,4.0,4.0,55,0.00,,,0.00,vanprod-2.3,2013-04-20 21:46:00,
2013-04-20 16:51:00,34.4,20.8,30.23,South,191,2.0,4.0,57,0.00,,,0.00,vanprod-2.3,2013-04-20 21:51:00,
2013-04-20 16:56:00,34.8,22.3,30.23,South,191,1.0,5.0,60,0.00,,,0.00,vanprod-2.3,2013-04-20 21:56:00,
2013-04-20 17:01:00,34.8,21.5,30.22,South,191,3.0,3.0,58,0.00,,,0.00,vanprod-2.3,2013-04-20 22:01:00,
2013-04-20 17:06:00,34.8,21.5,30.23,South,191,2.0,3.0,58,0.00,,,0.00,vanprod-2.3,2013-04-20 22:06:00,
2013-04-20 17:11:00,34.7,21.0,30.22,South,191,5.0,5.0,57,0.00,,,0.00,vanprod-2.3,2013-04-20 22:11:00,
2013-04-20 17:16:00,34.7,21.0,30.22,South,191,2.0,5.0,57,0.00,,,0.00,vanprod-2.3,2013-04-20 22:16:00,
2013-04-20 17:21:00,34.5,19.6,30.22,South,190,4.0,4.0,54,0.00,,,0.00,vanprod-2.3,2013-04-20 22:21:00,
2013-04-20 17:26:00,34.5,20.4,30.22,South,189,3.0,3.0,56,0.00,,,0.00,vanprod-2.3,2013-04-20 22:26:00,
2013-04-20 17:31:00,34.4,20.3,30.22,South,189,4.0,8.0,56,0.00,,,0.00,vanprod-2.3,2013-04-20 22:31:00,
2013-04-20 17:36:00,34.7,21.0,30.22,South,186,5.0,8.0,57,0.00,,,0.00,vanprod-2.3,2013-04-20 22:36:00,
2013-04-20 17:41:00,34.7,21.0,30.22,South,186,3.0,5.0,57,0.00,,,0.00,vanprod-2.3,2013-04-20 22:41:00,
2013-04-20 17:46:00,34.7,21.0,30.22,South,186,4.0,7.0,57,0.00,,,0.00,vanprod-2.3,2013-04-20 22:46:00,
2013-04-20 17:51:00,34.7,21.4,30.22,South,186,1.0,1.0,58,0.00,,,0.00,vanprod-2.3,2013-04-20 22:51:00,
2013-04-20 17:56:00,34.5,20.9,30.21,South,186,3.0,3.0,57,0.00,,,0.00,vanprod-2.3,2013-04-20 22:56:00,
2013-04-20 18:01:00,34.5,20.9,30.21,South,186,3.0,7.0,57,0.00,,,0.00,vanprod-2.3,2013-04-20 23:01:00,
2013-04-20 18:06:00,34.4,21.2,30.21,South,186,3.0,3.0,58,0.00,,,0.00,vanprod-2.3,2013-04-20 23:06:00,
2013-04-20 18:11:00,34.5,21.3,30.21,South,186,4.0,7.0,58,0.00,,,0.00,vanprod-2.3,2013-04-20 23:11:00,
2013-04-20 18:16:00,34.5,22.1,30.21,South,186,2.0,2.0,60,0.00,,,0.00,vanprod-2.3,2013-04-20 23:16:00,
2013-04-20 18:21:00,34.5,22.1,30.21,South,186,4.0,7.0,60,0.00,,,0.00,vanprod-2.3,2013-04-20 23:21:00,
2013-04-20 18:26:00,34.5,21.3,30.21,South,186,3.0,3.0,58,0.00,,,0.00,vanprod-2.3,2013-04-20 23:26:00,
2013-04-20 18:31:00,34.5,21.3,30.21,South,186,3.0,3.0,58,0.00,,,0.00,vanprod-2.3,2013-04-20 23:31:00,
2013-04-20 18:36:00,34.5,21.3,30.21,South,186,2.0,3.0,58,0.00,,,0.00,vanprod-2.3,2013-04-20 23:36:00,
2013-04-20 18:41:00,34.5,21.7,30.21,South,186,3.0,3.0,59,0.00,,,0.00,vanprod-2.3,2013-04-20 23:41:00,
2013-04-20 18:46:00,34.5,21.7,30.21,South,186,1.0,2.0,59,0.00,,,0.00,vanprod-2.3,2013-04-20 23:46:00,
2013-04-20 18:51:00,34.7,21.0,30.21,South,186,2.0,3.0,57,0.00,,,0.00,vanprod-2.3,2013-04-20 23:51:00,
2013-04-20 18:56:00,34.5,20.9,30.21,South,186,3.0,3.0,57,0.00,,,0.00,vanprod-2.3,2013-04-20 23:56:00,
2013-04-20 19:01:00,34.5,20.9,30.21,South,186,2.0,3.0,57,0.00,,,0.00,vanprod-2.3,2013-04-21 00:01:00,
2013-04-20 19:06:00,34.4,20.3,30.21,South,186,3.0,3.0,56,0.00,,,0.00,vanprod-2.3,2013-04-21 00:06:00,
2013-04-20 19:11:00,34.4,20.3,30.21,South,186,2.0,2.0,56,0.00,,,0.00,vanprod-2.3,2013-04-21 00:11:00,
2013-04-20 19:16:00,34.2,20.6,30.21,South,186,3.0,3.0,57,0.00,,,0.00,vanprod-2.3,2013-04-21 00:16:00,
2013-04-20 19:21:00,34.2,20.6,30.21,South,186,2.0,2.0,57,0.00,,,0.00,vanprod-2.3,2013-04-21 00:21:00,
2013-04-20 19:26:00,34.2,20.2,30.21,South,186,1.0,2.0,56,0.00,,,0.00,vanprod-2.3,2013-04-21 00:26:00,
2013-04-20 19:31:00,34.1,19.6,30.21,South,186,1.0,1.0,55,0.00,,,0.00,vanprod-2.3,2013-04-21 00:31:00,
2013-04-20 19:36:00,34.1,20.1,30.21,South,186,2.0,3.0,56,0.00,,,0.00,vanprod-2.3,2013-04-21 00:36:00,
2013-04-20 19:41:00,34.1,20.5,30.21,South,186,0.0,1.0,57,0.00,,,0.00,vanprod-2.3,2013-04-21 00:41:00,
2013-04-20 19:46:00,34.1,21.7,30.21,South,186,0.0,2.0,60,0.00,,,0.00,vanprod-2.3,2013-04-21 00:46:00,
2013-04-20 19:51:00,33.8,22.2,30.21,South,186,1.0,2.0,62,0.00,,,0.00,vanprod-2.3,2013-04-21 00:51:00,
2013-04-20 19:56:00,33.6,21.6,30.21,South,186,2.0,2.0,61,0.00,,,0.00,vanprod-2.3,2013-04-21 00:56:00,
2013-04-20 20:01:00,33.6,20.8,30.21,South,186,3.0,3.0,59,0.00,,,0.00,vanprod-2.3,2013-04-21 01:01:00,
2013-04-20 20:06:00,33.6,21.6,30.21,South,186,2.0,2.0,61,0.00,,,0.00,vanprod-2.3,2013-04-21 01:06:00,
2013-04-20 20:11:00,33.6,22.0,30.21,South,186,0.0,0.0,62,0.00,,,0.00,vanprod-2.3,2013-04-21 01:11:00,
2013-04-20 20:16:00,33.5,23.0,30.21,South,186,0.0,1.0,65,0.00,,,0.00,vanprod-2.3,2013-04-21 01:16:00,
2013-04-20 20:21:00,33.3,23.2,30.22,South,186,1.0,0.0,66,0.00,,,0.00,vanprod-2.3,2013-04-21 01:21:00,
2013-04-20 20:26:00,33.2,23.1,30.22,South,186,1.0,0.0,66,0.00,,,0.00,vanprod-2.3,2013-04-21 01:26:00,
2013-04-20 20:31:00,33.3,22.5,30.22,South,186,2.0,2.0,64,0.00,,,0.00,vanprod-2.3,2013-04-21 01:31:00,
2013-04-20 20:36:00,33.5,21.9,30.23,South,186,5.0,5.0,62,0.00,,,0.00,vanprod-2.3,2013-04-21 01:36:00,
2013-04-20 20:41:00,33.5,22.6,30.23,South,186,5.0,9.0,64,0.00,,,0.00,vanprod-2.3,2013-04-21 01:41:00,
2013-04-20 20:46:00,33.5,23.7,30.23,South,186,4.0,4.0,67,0.00,,,0.00,vanprod-2.3,2013-04-21 01:46:00,
2013-04-20 20:51:00,33.0,24.6,30.23,South,185,4.0,4.0,71,0.00,,,0.00,vanprod-2.3,2013-04-21 01:51:00,
2013-04-20 20:56:00,32.7,25.3,30.23,South,185,3.0,5.0,74,0.00,,,0.00,vanprod-2.3,2013-04-21 01:56:00,
2013-04-20 21:01:00,32.4,25.7,30.23,South,185,5.0,6.0,76,0.00,,,0.00,vanprod-2.3,2013-04-21 02:01:00,
2013-04-20 21:06:00,31.9,26.7,30.23,South,185,2.0,3.0,81,0.00,,,0.00,vanprod-2.3,2013-04-21 02:06:00,
2013-04-20 21:11:00,31.6,27.3,30.24,South,185,1.0,2.0,84,0.00,,,0.00,vanprod-2.3,2013-04-21 02:11:00,
2013-04-20 21:16:00,31.3,27.6,30.24,South,185,2.0,2.0,86,0.00,,,0.00,vanprod-2.3,2013-04-21 02:16:00,
2013-04-20 21:21:00,30.8,27.4,30.24,South,185,3.0,5.0,87,0.00,,,0.00,vanprod-2.3,2013-04-21 02:21:00,
2013-04-20 21:26:00,30.7,27.8,30.24,South,185,2.0,2.0,89,0.00,,,0.00,vanprod-2.3,2013-04-21 02:26:00,
2013-04-20 21:31:00,30.5,27.9,30.24,South,185,2.0,3.0,90,0.00,,,0.00,vanprod-2.3,2013-04-21 02:31:00,
2013-04-20 21:36:00,30.4,27.8,30.24,South,185,2.0,3.0,90,0.00,,,0.00,vanprod-2.3,2013-04-21 02:36:00,
2013-04-20 21:41:00,30.2,27.9,30.24,South,185,1.0,2.0,91,0.00,,,0.00,vanprod-2.3,2013-04-21 02:41:00,
2013-04-20 21:46:00,30.2,27.9,30.25,South,185,2.0,2.0,91,0.00,,,0.00,vanprod-2.3,2013-04-21 02:46:00,
2013-04-20 21:51:00,30.2,27.9,30.24,South,185,2.0,2.0,91,0.00,,,0.00,vanprod-2.3,2013-04-21 02:51:00,
2013-04-20 21:56:00,30.1,28.1,30.25,South,185,1.0,1.0,92,0.00,,,0.00,vanprod-2.3,2013-04-21 02:56:00,
2013-04-20 22:01:00,30.1,28.1,30.25,South,185,1.0,1.0,92,0.01,,,0.01,vanprod-2.3,2013-04-21 03:01:00,
2013-04-20 22:06:00,30.1,28.1,30.24,South,185,1.0,2.0,92,0.01,,,0.01,vanprod-2.3,2013-04-21 03:06:00,
2013-04-20 22:11:00,30.1,28.3,30.24,South,185,1.0,0.0,93,0.01,,,0.01,vanprod-2.3,2013-04-21 03:11:00,
2013-04-20 22:16:00,30.1,28.3,30.24,South,185,1.0,2.0,93,0.01,,,0.01,vanprod-2.3,2013-04-21 03:16:00,
2013-04-20 22:21:00,30.1,28.3,30.24,South,185,1.0,0.0,93,0.01,,,0.01,vanprod-2.3,2013-04-21 03:21:00,
2013-04-20 22:26:00,30.1,28.3,30.24,South,185,0.0,2.0,93,0.01,,,0.01,vanprod-2.3,2013-04-21 03:26:00,
2013-04-20 22:31:00,30.1,28.3,30.24,South,185,1.0,3.0,93,0.01,,,0.01,vanprod-2.3,2013-04-21 03:31:00,
2013-04-20 22:36:00,29.9,28.4,30.24,South,185,2.0,2.0,94,0.01,,,0.01,vanprod-2.3,2013-04-21 03:36:00,
2013-04-20 22:41:00,30.1,28.6,30.24,South,185,1.0,1.0,94,0.01,,,0.01,vanprod-2.3,2013-04-21 03:41:00,
2013-04-20 22:46:00,30.1,28.6,30.24,South,185,2.0,2.0,94,0.02,,,0.02,vanprod-2.3,2013-04-21 03:46:00,
2013-04-20 22:51:00,30.1,28.6,30.24,South,185,1.0,1.0,94,0.02,,,0.02,vanprod-2.3,2013-04-21 03:51:00,
2013-04-20 22:56:00,30.1,28.6,30.24,South,185,1.0,2.0,94,0.02,,,0.02,vanprod-2.3,2013-04-21 03:56:00,
2013-04-20 23:01:00,30.1,28.6,30.24,South,185,2.0,6.0,94,0.01,,,0.02,vanprod-2.3,2013-04-21 04:01:00,
2013-04-20 23:06:00,30.1,28.6,30.24,South,185,3.0,3.0,94,0.01,,,0.02,vanprod-2.3,2013-04-21 04:06:00,
2013-04-20 23:11:00,30.1,28.8,30.24,South,185,2.0,2.0,95,0.01,,,0.02,vanprod-2.3,2013-04-21 04:11:00,
2013-04-20 23:16:00,30.1,28.8,30.24,South,185,1.0,3.0,95,0.01,,,0.02,vanprod-2.3,2013-04-21 04:16:00,
2013-04-20 23:21:00,30.2,28.9,30.23,South,185,2.0,2.0,95,0.02,,,0.03,vanprod-2.3,2013-04-21 04:21:00,
2013-04-20 23:26:00,30.2,28.9,30.23,South,174,2.0,3.0,95,0.02,,,0.03,vanprod-2.3,2013-04-21 04:26:00,
2013-04-20 23:31:00,30.2,28.9,30.23,South,174,2.0,2.0,95,0.02,,,0.03,vanprod-2.3,2013-04-21 04:31:00,
2013-04-20 23:36:00,30.2,28.9,30.23,South,174,2.0,2.0,95,0.02,,,0.03,vanprod-2.3,2013-04-21 04:36:00,
2013-04-20 23:41:00,30.2,28.9,30.23,South,174,1.0,2.0,95,0.02,,,0.03,vanprod-2.3,2013-04-21 04:41:00,
2013-04-20 23:46:00,30.2,28.9,30.23,South,174,3.0,3.0,95,0.01,,,0.03,vanprod-2.3,2013-04-21 04:46:00,
2013-04-20 23:51:00,30.2,28.9,30.23,South,174,2.0,5.0,95,0.01,,,0.03,vanprod-2.3,2013-04-21 04:51:00,
2013-04-20 23:56:00,30.1,28.8,30.23,South,174,0.0,0.0,95,0.01,,,0.03,vanprod-2.3,2013-04-21 04:56:00,